Terminal Aerodrome Forecast
Issued by NWS Pendleton, OR

Home | Current Version | Previous Version | Text Only | Print | Product List | Glossary On
Versions: 1 2 3 4 5 6 7 8 9 10 11 12 13 14 15 16 17 18 19 20 21 22 23 24 25 26
000
FTUS46 KPDT 232320
TAFPDT
TAF
KPDT 232320Z 2400/2424 08006KT P6SM SCT200
     FM240400 12005KT P6SM SCT100 OVC120
     FM241100 16006KT P6SM -RA OVC050
     FM242000 24008KT P6SM VCSH BKN050=

USA.gov is the U.S. government's official web portal to all federal, state and local government web resources and services.